AirNav   Pilot Hours Calculator
 
 1365 users online  

OR90 Lafayette Airstrip
Lafayette, Oregon, USA

GOING TO LAFAYETTE?


FAA INFORMATION EFFECTIVE 28 FEBRUARY 2019

Location

FAA Identifier: OR90
Lat/Long: 45-14-39.4190N / 123-07-44.3750W
45-14.656983N / 123-07.739583W
45.2442831 / -123.1289931
(estimated)
Elevation: 160 ft. / 49 m (estimated)
Variation: 19E (1985)
From city: 1 mile W of LAFAYETTE, OR
Time zone: UTC -8 (UTC -7 during Daylight Saving Time)
Zip code: 97128

Airport Operations

Airport use: Private use. Permission required prior to landing
Control tower: no
ARTCC: SEATTLE CENTER
FSS: MC MINNVILLE FLIGHT SERVICE STATION
Attendance: CONTINUOUS
Wind indicator: no
Segmented circle: no

Airport Communications

WX ASOS at MMV (3 nm S): 135.675 (503-434-9153)
WX ASOS at UAO (15 nm E): PHONE 503-678-3011
WX ASOS at HIO (19 nm NE): PHONE 503-640-2984

Nearby radio navigation aids

VOR radial/distance  VOR name  Freq  Var
UBGr203/9.1NEWBERG VOR/DME117.4021E
BTGr196/37.7BATTLE GROUND VORTAC116.6021E

 
NDB name  Hdg/Dist  Freq  Var  ID
BANKS173/23.435616EPND .--. -. -..
LEWISBURG354/38.322515ELWG .-.. .-- --.

Airport Services

Airframe service: NONE
Powerplant service: NONE

Runway Information

Runway 3/21

Dimensions: 2700 x 70 ft. / 823 x 21 m
Surface: turf/gravel
RUNWAY 3  RUNWAY 21
Traffic pattern: leftright

Airport Ownership and Management from official FAA records

Ownership: Privately-owned
Owner: HELEN WEEKS
11200 N HWY 99 W
MC MINNVILLE, OR 97128
Phone 503-864-2456

Airport Operational Statistics

Aircraft based on the field: 3
Single engine airplanes: 3
    

Additional Remarks

FOR CD CTC PORTLAND APCH AT 503-493-7545.

Instrument Procedures

There are no published instrument procedures at OR90.

Some nearby airports with instrument procedures:

KMMV - Mc Minnville Municipal Airport (3 nm S)
KUAO - Aurora State Airport (15 nm E)
KHIO - Portland-Hillsboro Airport (19 nm NE)
KSLE - McNary Field Airport (21 nm S)
KVUO - Pearson Field Airport (30 nm NE)
 
Loc | Ops | Rwys | IFR | FBO | Links
Com | Nav | Svcs | Stats | Notes
Area around OR90 (Lafayette Airstrip)
 
Road maps at: MapQuest Bing Google
 
Aerial photo
WARNING: Photo may not be current or correct
Aerial photo of OR90 (Lafayette Airstrip)
Photo taken 21-Jul-2002

Do you have a better or more recent aerial photo of Lafayette Airstrip that you would like to share? If so, please send us your photo.

 
Sectional chart

 
Airport distance calculator
Flying to Lafayette Airstrip? Find the distance to fly.

From to OR90

Sunrise and sunset
Times for 26-Mar-2019
 Local
(UTC-7)
 Zulu
(UTC)
Morning civil twilight06:3613:36
Sunrise07:0514:05
Sunset19:3102:31
Evening civil twilight20:0103:01

Current date and time
Zulu (UTC)  26-Mar-2019 13:48:06
Local (UTC-7)  26-Mar-2019 06:48:06
 
METAR
KMMV 
3nm S 
261253Z AUTO 36004KT 7SM CLR 02/02 A3009 RMK AO2 SLP190 T00220017
KUAO 
15nm E 
261253Z AUTO 00000KT 10SM CLR 04/03 A3010 RMK AO2 SLP194 T00390028
KHIO 
20nm N 
261253Z 00000KT 10SM FEW055 03/02 A3009 RMK AO2 SLP190 T00280022
TAF
KUAO 
15nm E 
261134Z 2612/2712 VRB03KT P6SM SCT050 FM261600 VRB02KT P6SM SCT025 BKN045 FM262100 VRB03KT P6SM SCT250 FM270500 08005KT P6SM SCT250
KHIO 
20nm N 
261134Z 2612/2712 05004KT P6SM FEW045 FM261600 13004KT P6SM SCT025 BKN045 FM261800 VRB03KT P6SM FEW015 BKN050 FM270000 VRB03KT P6SM SCT250 FM270600 08005KT P6SM SCT250
NOTAMs
Click for the latest NOTAMs
NOTAMs are issued by the DoD/FAA and will open in a separate window not controlled by AirNav.

 

 
 

Would you like to see your business listed on this page?

 If your business provides an interesting product or service to pilots, flight crews, aircraft, or users of the Lafayette Airstrip, you should consider listing it here.  To start the listing process, click on the button below
 
Add a business
 

Other Pages about Lafayette Airstrip

Update a link
 
Copyright © AirNav, LLC. All rights reserved. Privacy Policy  Contact